Location: Unspecified
(0.0000°N, 0.0000°E)
Time: 18:58:49
(UTC+00:00)

deb Kosmos-1275 - Pass Details

Date: 09 March 2026
Orbit: 880 x 1009 km, 83.1° (Epoch: 21 April)

Event Time Altitude Azimuth Distance (km) Brightness Sun altitude
Exits shadow 03:36:51 30° 138° (SE) 1,647 ? -38.3°
Drops below altitude 10° 03:40:05 10° 158° (SSE) 2,666 ? -37.5°
Sets 03:42:38 0° 164° (SSE) 3,593 ? -36.9°
